Regional Weather Roundup
Issued by NWS

Home | Current Version | Previous Version | Text Only | Print | Product List | Glossary Off
Versions: 1 2 3 4 5 6 7 8 9 10 11 12 13 14 15 16 17 18 19 20 21 22 23 24 25 26 27 28 29 30 31 32 33 34 35 36 37 38 39 40 41 42 43 44 45 46 47 48 49 50

000
ASUS44 KMEG 181800
RWRTN
TENNESSEE HOURLY STATE WEATHER ROUNDUP
NATIONAL WEATHER SERVICE MEMPHIS TN
1200 PM CST THU JAN 18 2018

TNZ002-004-019-021-049-052-054-088>092-181900-
WEST TENNESSEE

CITY           SKY/WX    TMP DP  RH WIND       PRES   REMARKS
MEMPHIS INTL   FAIR      31  14  49 VRB7G20   30.53F WCI  24
NWS MEMPHIS      N/A     31 N/A N/A MISG        N/A
JACKSON        FAIR      29  13  51 W7        30.52F WCI  22
DYERSBURG      FAIR      33  13  43 SW9       30.51F WCI  25
$$

TNZ008-025-027-028-033-062-065-066-181900-
NORTH MIDDLE TENNESSEE

CITY           SKY/WX    TMP DP  RH WIND       PRES   REMARKS
NASHVILLE      FAIR      31  13  47 VRB3      30.50F
CLARKSVILLE    FAIR      27  11  51 SW7       30.47F WCI  19
SMYRNA         FAIR      33  17  51 SE3       30.51F
CROSSVILLE     FAIR      27  10  49 CALM      30.38F
$$

TNZ061-075-076-078-094-096-097-181900-
SOUTH MIDDLE TENNESSEE

CITY           SKY/WX    TMP DP  RH WIND       PRES   REMARKS
WINCHESTER     SUNNY     25  12  58 VRB3      30.47F
$$

TNZ017-018-042-046-047-181900-
NORTHEAST TENNESSEE

CITY           SKY/WX    TMP DP  RH WIND       PRES   REMARKS
TRI CITIES     FAIR      22  11  62 VRB5      30.41F WCI  16
$$

TNZ012-013-036-069-073-074-181900-
CENTRAL EAST TENNESSEE

CITY           SKY/WX    TMP DP  RH WIND       PRES   REMARKS
KNOXVILLE      FAIR      25  10  53 CALM      30.45F
$$

TNZ083-085-099-181900-
SOUTHEAST TENNESSEE

CITY           SKY/WX    TMP DP  RH WIND       PRES   REMARKS
CHATTANOOGA    FAIR      31   6  35 N9        30.47F WCI  23
$$

SKY/WX REPORTED AS FAIR MEANS FEW OR NO CLOUDS BELOW
12 THOUSAND FEET.





USA.gov is the U.S. government's official web portal to all federal, state and local government web resources and services.